Weather History for WIOO - April, 2013

Change the Weather History Date:

Tuesday, April 23, 2013

  Actual Average Record
Temperature  
Mean Temperature 84 °F -  
Max Temperature 93 °F - - ()
Min Temperature 74 °F - - ()
Cooling Degree Days 18    
Growing Degree Days 34 (Base 50)    
Moisture  
Dew Point 75 °F    
Average Humidity 75    
Maximum Humidity 100    
Minimum Humidity 26    
Precipitation  
Precipitation 0.31 in - - ()
Sea Level Pressure  
Sea Level Pressure 29.80 in    
Wind  
Wind Speed 3 mph ()    
Max Wind Speed 17 mph    
Max Gust Speed -    
Visibility 4.8 miles    
Events Rain , Thunderstorm    
T = Trace of Precipitation, MM = Missing Value Source: Averaged Metar Reports

Daily Weather History Graph

Daily Weather History Graph

Search for Another Location

Airport or City:

Trip Planner

Search our weather history database for the weather conditions in past years. The results will help you decide how hot, cold, wet, or windy it might be!

Date:

Astronomy

Apr. 23, 2013 Rise Set
Actual Time 5:37 AM WIB 5:43 PM WIB
Civil Twilight 5:16 AM WIB 6:05 PM WIB
Nautical Twilight 4:51 AM WIB 6:29 PM WIB
Astronomical Twilight 4:27 AM WIB 6:54 PM WIB
Moon 3:33 PM WIB (4/23) 3:07 AM WIB (4/23)
Length of Visible Light 12h 48m
Length of Day
12h 06m
Waxing Gibbous, 91% of the Moon is Illuminated
Apr 23
Waxing Gibbous
Apr 26
Full
May 2
Last Quarter
May 10
New
May 18
First Quarter

Hourly Weather History & Observations

Time (WIB) Temp. Heat Index Dew Point Humidity Pressure Visibility Wind Dir Wind Speed Gust Speed Precip Events Conditions
4:00 AM 74 °F - 74 °F 100% 29.80 in 4 mi Calm Calm - -   Mostly Cloudy
5:30 AM - - - N/A% 29.80 in 3.7 mi Calm Calm - N/A   Mostly Cloudy
6:00 AM 75.2 °F - 75.2 °F 100% 29.83 in 0.6 mi Calm Calm - N/A   Mostly Cloudy
7:00 AM 76 °F - 76 °F 98% 29.86 in 1 mi Calm Calm - -   Mist
8:00 AM 77.0 °F - 77.0 °F 100% 29.86 in 3.7 mi ENE 3.5 mph - N/A   Mostly Cloudy
9:00 AM 78.8 °F - 77.0 °F 94% 29.86 in 5.0 mi ENE 3.5 mph - N/A   Mostly Cloudy
9:30 AM 80.6 °F 86.2 °F 75.2 °F 84% 29.86 in 6.2 mi Calm Calm - N/A   Scattered Clouds
10:00 AM 83 °F - 78 °F 80% 29.86 in 6 mi NE 3.5 mph - -   Scattered Clouds
10:30 AM 82.4 °F 90.9 °F 77.0 °F 84% 29.83 in 6.2 mi SW 3.5 mph - N/A   Partly Cloudy
11:00 AM 87.8 °F 102.5 °F 78.8 °F 75% 29.80 in 6.2 mi Calm Calm - N/A   Scattered Clouds
11:30 AM 89.6 °F 104.7 °F 78.8 °F 70% 29.80 in 6.2 mi Calm Calm - N/A   Scattered Clouds
1:00 PM 91 °F - 76 °F 52% 29.79 in 6 mi Calm Calm - -   Mostly Cloudy
1:00 PM 91.4 °F 102.5 °F 75.2 °F 59% 29.77 in 6.2 mi Calm Calm - N/A   Mostly Cloudy
1:30 PM 91.4 °F 102.5 °F 75.2 °F 59% 29.77 in 6.2 mi Calm Calm - N/A   Mostly Cloudy
2:00 PM 91.4 °F 102.5 °F 75.2 °F 59% 29.74 in 6.2 mi Calm Calm - N/A   Scattered Clouds
2:30 PM 91.4 °F 102.5 °F 75.2 °F 59% 29.74 in 6.2 mi North 5.8 mph - N/A   Scattered Clouds
3:00 PM 91.4 °F 105.1 °F 77.0 °F 63% 29.71 in 6.2 mi West 9.2 mph - N/A   Mostly Cloudy
3:30 PM 91.4 °F 105.1 °F 77.0 °F 63% 29.71 in 6.2 mi West 10.4 mph - N/A   Scattered Clouds
4:00 PM 90 °F - 75 °F 53% 29.72 in 6 mi West 9.2 mph - -   Partly Cloudy
4:00 PM 89.6 °F 99.8 °F 75.2 °F 62% 29.71 in 6.2 mi West 9.2 mph - N/A   Scattered Clouds
4:30 PM 89.6 °F 99.8 °F 75.2 °F 62% 29.71 in 6.2 mi West 9.2 mph - N/A   Scattered Clouds
5:00 PM 87.8 °F 97.6 °F 75.2 °F 66% 29.71 in 6.2 mi WSW 9.2 mph - N/A   Scattered Clouds
5:30 PM 87.8 °F 97.6 °F 75.2 °F 66% 29.71 in 6.2 mi West 9.2 mph - N/A   Mostly Cloudy
6:30 PM 84.2 °F 92.3 °F 75.2 °F 74% 29.74 in 3.7 mi North 3.5 mph - N/A Thunderstorm Thunderstorm
7:00 PM 80 °F - 77 °F 89% 29.85 in 4 mi North 17.3 mph - - Rain , Thunderstorm Thunderstorms and Rain
7:00 PM 84.2 °F 94.1 °F 77.0 °F 79% - 3.7 mi North 3.5 mph - N/A Rain , Thunderstorm Thunderstorms and Rain
7:30 PM 78.8 °F - 77.0 °F 94% 29.86 in - North 13.8 mph - N/A Rain , Thunderstorm Thunderstorms and Rain
8:30 PM 77.0 °F - 75.2 °F 94% 29.86 in - North 3.5 mph - N/A Rain , Thunderstorm Thunderstorms and Rain
9:00 PM 77.0 °F - 39.2 °F 26% 29.89 in 1.9 mi North 3.5 mph - N/A Rain , Thunderstorm Thunderstorms and Rain
10:00 PM 76 °F - 74 °F 94% 29.92 in 2 mi Calm Calm - - Rain , Thunderstorm Thunderstorms and Rain
10:00 PM 77.0 °F - 75.2 °F 94% 29.89 in 2.5 mi Calm Calm - N/A Rain , Thunderstorm Thunderstorms and Rain